Buffalo, NY

11:48 PM EDT on July 27, 2017 (GMT -0400)
Buffalo Niagara International

Weather History for KBUF - February, 2014

Change the Weather History Date:

Wednesday, February 5, 2014

  Actual Average Record
Temperature  
Mean Temperature 18 °F 25 °F  
Max Temperature 23 °F 32 °F 60 °F (1890)
Min Temperature 13 °F 18 °F -12 °F (1918)
Degree Days  
Heating Degree Days 47 40  
Month to date heating degree days 204 200  
Since 1 July heating degree days 4051 3859  
Cooling Degree Days 0 0  
Month to date cooling degree days 0 0  
Year to date cooling degree days 0 0  
Moisture  
Dew Point 17 °F    
Average Humidity 83    
Maximum Humidity 92    
Minimum Humidity 73    
Precipitation  
Precipitation 0.47 in 0.09 in 0.77 in (2008)
Month to date precipitation 1.23 0.44  
Year to date precipitation 4.39 3.62  
Snow  
Snow 8.80 in 0.70 in 8.80 in (2014)
Month to date snowfall 9.7 3.5  
Since 1 July snowfall 90.6 65.0  
Snow Depth 3.00 in    
Sea Level Pressure  
Sea Level Pressure 29.98 in    
Wind  
Wind Speed 14 mph (NNE)    
Max Wind Speed 28 mph    
Max Gust Speed 33 mph    
Visibility 3 miles    
Events Snow    
T = Trace of Precipitation, MM = Missing Value Source: NWS Daily Summary

Daily Weather History Graph

Daily Weather History Graph

Search for Another Location

Airport or City:

Trip Planner

Search our weather history database for the weather conditions in past years. The results will help you decide how hot, cold, wet, or windy it might be!

Date:

Astronomy

Feb. 05, 2014 Rise Set
Actual Time 7:25 AM EST 5:33 PM EST
Civil Twilight 6:55 AM EST 6:02 PM EST
Nautical Twilight 6:21 AM EST 6:36 PM EST
Astronomical Twilight 5:48 AM EST 7:09 PM EST
Moon 10:28 AM EST (2/5) No Moon Set
Length of Visible Light 11h 07m
Length of Day
10h 07m
Waxing Crescent, 39% of the Moon is Illuminated
Feb 5
Waxing Crescent
Feb 6
First Quarter
Feb 14
Full
Feb 22
Last Quarter
Mar 1
New

Hourly Weather History & Observations

Time (EST) Temp. Windchill Dew Point Humidity Pressure Visibility Wind Dir Wind Speed Gust Speed Precip Events Conditions
12:05 AM 23.0 °F 12.4 °F 15.8 °F 74% 30.21 in 1.5 mi East 10.4 mph - 0.00 in Snow Light Snow
12:54 AM 21.9 °F 11.0 °F 18.0 °F 85% 30.20 in 1.8 mi NE 10.4 mph - 0.00 in Snow Light Snow
1:54 AM 21.9 °F 11.0 °F 19.0 °F 89% 30.16 in 1.0 mi NE 10.4 mph - 0.02 in Snow Light Snow
2:04 AM 21.2 °F 10.1 °F 19.4 °F 93% 30.11 in 1.0 mi NE 10.4 mph - 0.01 in Snow Light Snow
2:18 AM 21.2 °F 9.5 °F 19.4 °F 93% 30.10 in 1.2 mi ENE 11.5 mph - 0.02 in Snow Light Snow
2:54 AM 21.9 °F 11.7 °F 19.0 °F 89% 30.14 in 1.2 mi NE 9.2 mph - 0.03 in Snow Light Snow
3:54 AM 21.0 °F 9.3 °F 18.0 °F 88% 30.12 in 1.2 mi NE 11.5 mph - 0.04 in Snow Light Snow
4:54 AM 21.0 °F 9.3 °F 18.0 °F 88% 30.07 in 1.8 mi NE 11.5 mph - 0.01 in Snow Light Snow
5:54 AM 21.9 °F 8.2 °F 18.0 °F 85% 30.03 in 1.2 mi NE 16.1 mph - 0.02 in Snow Light Snow
6:36 AM 21.2 °F 8.3 °F 17.6 °F 86% 29.94 in 2.5 mi NE 13.8 mph - 0.01 in Snow Light Snow
6:45 AM 21.2 °F 6.8 °F 19.4 °F 93% 29.93 in 3.0 mi NE 17.3 mph - 0.01 in Snow Light Snow
6:54 AM 21.9 °F 8.7 °F 19.0 °F 89% 29.98 in 4.0 mi NE 15.0 mph - 0.02 in Snow Light Snow
7:47 AM 21.2 °F 6.4 °F 17.6 °F 86% 29.89 in 7.0 mi NE 18.4 mph 25.3 mph 0.00 in Snow Light Snow
7:54 AM 21.9 °F 6.5 °F 19.0 °F 89% 29.92 in 7.0 mi NE 20.7 mph 25.3 mph 0.00 in Snow Light Snow
8:19 AM 23.0 °F 7.6 °F 19.4 °F 86% 29.86 in 3.0 mi ENE 21.9 mph 26.5 mph 0.00 in Snow Light Snow
8:45 AM 23.0 °F 7.2 °F 19.4 °F 86% 29.82 in 2.5 mi NE 23.0 mph 29.9 mph 0.00 in Snow Light Snow
8:54 AM 23.0 °F 6.6 °F 19.9 °F 88% 29.84 in 2.5 mi ENE 25.3 mph 32.2 mph 0.00 in Snow Light Snow
9:03 AM 23.0 °F 7.2 °F 19.4 °F 86% 29.79 in 1.2 mi ENE 23.0 mph 32.2 mph 0.00 in Snow Light Snow
9:33 AM 23.0 °F 10.1 °F 19.4 °F 86% 29.80 in 0.8 mi NE 15.0 mph 24.2 mph 0.00 in Snow Light Snow
9:54 AM 23.0 °F 10.6 °F 19.9 °F 88% 29.83 in 0.5 mi NE 13.8 mph - 0.01 in Snow Snow
10:19 AM 23.0 °F 10.6 °F 19.4 °F 86% 29.79 in 0.2 mi NE 13.8 mph 23.0 mph 0.01 in Snow Heavy Snow
10:54 AM 23.0 °F 9.2 °F 19.9 °F 88% 29.83 in 0.2 mi NNE 17.3 mph 24.2 mph 0.04 in Snow Heavy Snow
11:54 AM 23.0 °F 8.0 °F 19.9 °F 88% 29.78 in 0.2 mi NE 20.7 mph 27.6 mph 0.06 in Snow Heavy Snow
11:59 AM 23.0 °F 9.2 °F 21.2 °F 93% 29.74 in 0.1 mi NE 17.3 mph 27.6 mph 0.00 in Snow Heavy Snow
12:20 PM 23.0 °F 8.3 °F 19.4 °F 86% 29.74 in 0.2 mi NE 19.6 mph 29.9 mph 0.02 in Snow Heavy Snow
12:36 PM 23.0 °F 6.9 °F 19.4 °F 86% 29.73 in 0.8 mi NE 24.2 mph 32.2 mph 0.03 in Snow Light Snow
12:50 PM 23.0 °F 12.4 °F 19.4 °F 86% 29.74 in 1.5 mi NNE 10.4 mph 28.8 mph 0.03 in Snow Light Snow
12:54 PM 23.0 °F 8.0 °F 19.9 °F 88% 29.78 in 1.5 mi NNE 20.7 mph 27.6 mph 0.03 in Snow Light Snow
1:23 PM 21.2 °F 6.8 °F 19.4 °F 93% 29.74 in 1.5 mi NNE 17.3 mph - 0.00 in Snow Light Snow
1:48 PM 23.0 °F 9.6 °F 19.4 °F 86% 29.75 in 0.8 mi NNE 16.1 mph - 0.00 in Snow Light Snow
1:54 PM 23.0 °F 10.6 °F 19.0 °F 85% 29.80 in 0.8 mi NNE 13.8 mph - 0.01 in Snow Light Snow
2:54 PM 23.0 °F 10.6 °F 19.0 °F 85% 29.84 in 0.2 mi North 13.8 mph 21.9 mph 0.01 in Snow Heavy Snow
3:54 PM 21.9 °F 9.8 °F 18.0 °F 85% 29.90 in 0.5 mi North 12.7 mph 20.7 mph 0.01 in Snow Snow
4:45 PM 21.2 °F 7.8 °F 17.6 °F 86% 29.92 in 1.0 mi North 15.0 mph - 0.02 in Snow Light Snow
4:54 PM 21.0 °F 8.6 °F 17.1 °F 85% 29.96 in 1.2 mi North 12.7 mph - 0.02 in Snow Light Snow
5:24 PM 19.4 °F 6.0 °F 17.6 °F 93% 29.97 in 1.2 mi North 13.8 mph - 0.00 in Snow Light Snow
5:33 PM 19.4 °F 6.6 °F 15.8 °F 86% 29.97 in 3.0 mi North 12.7 mph - 0.00 in Snow Light Snow
5:48 PM 19.4 °F 7.2 °F 15.8 °F 86% 29.99 in 1.0 mi North 11.5 mph - 0.00 in Snow Light Snow
5:54 PM 19.9 °F 9.3 °F 16.0 °F 85% 30.04 in 1.0 mi North 9.2 mph - 0.00 in Snow Light Snow
6:54 PM 19.9 °F 9.3 °F 16.0 °F 85% 30.09 in 2.0 mi North 9.2 mph - 0.00 in Snow Light Snow
7:22 PM 19.4 °F 7.9 °F 15.8 °F 86% 30.06 in 4.0 mi North 10.4 mph - 0.00 in Snow Light Snow
7:54 PM 19.0 °F 7.5 °F 15.1 °F 85% 30.13 in 9.0 mi NNW 10.4 mph - 0.00 in Snow Light Snow
8:20 PM 19.4 °F 9.5 °F 15.8 °F 86% 30.10 in 6.0 mi NNW 8.1 mph - 0.00 in Snow Light Snow
8:54 PM 19.0 °F 6.8 °F 15.1 °F 85% 30.18 in 4.0 mi NNW 11.5 mph - 0.00 in Snow Light Snow
9:36 PM 17.6 °F 5.7 °F 14.0 °F 86% 30.16 in 5.0 mi NNW 10.4 mph - 0.00 in Snow Light Snow
9:54 PM 18.0 °F 4.2 °F 12.0 °F 78% 30.21 in 6.0 mi NNW 13.8 mph - 0.00 in Snow Light Snow
10:54 PM 16.0 °F 2.3 °F 9.0 °F 74% 30.24 in 9.0 mi NNW 12.7 mph - 0.00 in Snow Light Snow
11:15 PM 15.8 °F 6.1 °F 8.6 °F 73% 30.20 in 9.0 mi NNW 6.9 mph - 0.00 in Snow Light Snow
11:35 PM 14.0 °F 6.5 °F 6.8 °F 73% 30.21 in 9.0 mi NW 4.6 mph - 0.00 in   Scattered Clouds
11:54 PM 12.9 °F 3.8 °F 6.1 °F 74% 30.27 in 10.0 mi NW 5.8 mph - 0.00 in   Scattered Clouds